Time,TemperatureF,DewpointF,PressureIn,WindDirection,WindDirectionDegrees,WindSpeedMPH,WindSpeedGustMPH,Humidity,HourlyPrecipIn,Conditions,Clouds,dailyrainin,SoftwareType,DateUTC
2013-04-07 00:00:00,47.0,35.2,30.23,ENE,72,0.0,4.0,63,0.00,,,0.00,WUHU216DAVISVP2,2013-04-07 04:00:00,
2013-04-07 00:01:00,47.0,35.0,30.23,ENE,72,1.0,1.0,63,0.00,,,0.00,WUHU216DAVISVP2,2013-04-07 04:01:00,
2013-04-07 00:06:00,46.8,34.9,30.23,ENE,72,0.0,1.0,63,0.00,,,0.00,WUHU216DAVISVP2,2013-04-07 04:06:00,
2013-04-07 00:11:00,46.7,34.9,30.23,ENE,65,0.0,7.0,63,0.00,,,0.00,WUHU216DAVISVP2,2013-04-07 04:11:00,
2013-04-07 00:16:00,46.7,34.9,30.22,ENE,65,0.0,7.0,63,0.00,,,0.00,WUHU216DAVISVP2,2013-04-07 04:16:00,
2013-04-07 10:37:00,56.7,40.7,30.22,WSW,246,1.0,1.0,55,0.00,,,0.00,WUHU216DAVISVP2,2013-04-07 14:37:00,
2013-04-07 10:42:00,57.2,41.2,30.22,WSW,246,0.0,1.0,55,0.00,,,0.00,WUHU216DAVISVP2,2013-04-07 14:42:00,
2013-04-07 10:48:00,57.8,41.8,30.22,ENE,68,0.0,2.0,55,0.00,,,0.00,WUHU216DAVISVP2,2013-04-07 14:48:00,
2013-04-07 10:53:00,58.3,42.3,30.22,SW,220,2.0,2.0,55,0.00,,,0.00,WUHU216DAVISVP2,2013-04-07 14:53:00,
2013-04-07 10:58:00,58.4,42.4,30.22,ENE,64,0.0,2.0,55,0.00,,,0.00,WUHU216DAVISVP2,2013-04-07 14:58:00,
2013-04-07 11:03:00,58.4,42.4,30.21,ESE,110,0.0,4.0,55,0.00,,,0.00,WUHU216DAVISVP2,2013-04-07 15:03:00,
2013-04-07 11:08:00,59.5,43.3,30.21,SE,144,0.0,4.0,55,0.00,,,0.00,WUHU216DAVISVP2,2013-04-07 15:08:00,
2013-04-07 11:13:00,60.1,39.8,30.21,WSW,254,4.0,4.0,47,0.00,,,0.00,WUHU216DAVISVP2,2013-04-07 15:13:00,
2013-04-07 11:18:00,60.7,40.3,30.21,ESE,107,0.0,4.0,47,0.00,,,0.00,WUHU216DAVISVP2,2013-04-07 15:18:00,
2013-04-07 11:23:00,60.9,40.5,30.21,SE,138,0.0,4.0,47,0.00,,,0.00,WUHU216DAVISVP2,2013-04-07 15:23:00,
2013-04-07 11:28:00,61.2,40.8,30.21,SW,215,2.0,2.0,47,0.00,,,0.00,WUHU216DAVISVP2,2013-04-07 15:28:00,
2013-04-07 11:33:00,61.6,41.1,30.20,NE,41,0.0,2.0,47,0.00,,,0.00,WUHU216DAVISVP2,2013-04-07 15:33:00,
2013-04-07 11:38:00,61.6,41.1,30.20,NE,41,0.0,2.0,47,0.00,,,0.00,WUHU216DAVISVP2,2013-04-07 15:38:00,
2013-04-07 11:43:00,61.6,41.1,30.20,WNW,298,0.0,0.0,47,0.00,,,0.00,WUHU216DAVISVP2,2013-04-07 15:43:00,
2013-04-07 11:48:00,63.1,42.5,30.20,SE,131,0.0,0.0,47,0.00,,,0.00,WUHU216DAVISVP2,2013-04-07 15:48:00,
2013-04-07 11:53:00,63.4,42.8,30.20,SW,223,0.0,1.0,47,0.00,,,0.00,WUHU216DAVISVP2,2013-04-07 15:53:00,
2013-04-07 11:58:00,64.0,41.0,30.20,South,175,0.0,1.0,43,0.00,,,0.00,WUHU216DAVISVP2,2013-04-07 15:58:00,
2013-04-07 12:03:00,64.3,41.2,30.19,ESE,107,7.0,7.0,43,0.00,,,0.00,WUHU216DAVISVP2,2013-04-07 16:03:00,
2013-04-07 12:08:00,64.3,41.2,30.19,East,85,2.0,7.0,43,0.00,,,0.00,WUHU216DAVISVP2,2013-04-07 16:08:00,
2013-04-07 12:13:00,64.3,41.2,30.19,East,85,2.0,7.0,43,0.00,,,0.00,WUHU216DAVISVP2,2013-04-07 16:13:00,
2013-04-07 12:18:00,64.3,41.2,30.17,East,85,2.0,2.0,43,0.00,,,0.00,WUHU216DAVISVP2,2013-04-07 16:18:00,
2013-04-07 13:05:00,66.9,40.5,30.16,West,270,6.0,6.0,38,0.00,,,0.00,WUHU216DAVISVP2,2013-04-07 17:05:00,
2013-04-07 13:10:00,67.1,40.6,30.16,North,8,4.0,6.0,38,0.00,,,0.00,WUHU216DAVISVP2,2013-04-07 17:10:00,
2013-04-07 13:15:00,67.1,41.3,30.14,South,178,0.0,6.0,39,0.00,,,0.00,WUHU216DAVISVP2,2013-04-07 17:15:00,
2013-04-07 13:20:00,67.4,41.6,30.14,SSE,151,1.0,4.0,39,0.00,,,0.00,WUHU216DAVISVP2,2013-04-07 17:20:00,
2013-04-07 13:25:00,67.4,41.4,30.14,North,359,6.0,6.0,39,0.00,,,0.00,WUHU216DAVISVP2,2013-04-07 17:25:00,
2013-04-07 13:30:00,67.4,41.4,30.14,SSE,150,0.0,7.0,39,0.00,,,0.00,WUHU216DAVISVP2,2013-04-07 17:30:00,
2013-04-07 13:35:00,69.3,43.1,30.14,East,99,2.0,7.0,39,0.00,,,0.00,WUHU216DAVISVP2,2013-04-07 17:35:00,
2013-04-07 13:40:00,69.3,41.7,30.14,WNW,296,0.0,8.0,37,0.00,,,0.00,WUHU216DAVISVP2,2013-04-07 17:40:00,
2013-04-07 13:45:00,69.9,41.6,30.12,ESE,121,2.0,8.0,36,0.00,,,0.00,WUHU216DAVISVP2,2013-04-07 17:45:00,
2013-04-07 13:50:00,69.9,41.6,30.12,ESE,121,2.0,6.0,36,0.00,,,0.00,WUHU216DAVISVP2,2013-04-07 17:50:00,
2013-04-07 13:55:00,69.9,41.7,30.12,SE,127,1.0,2.0,36,0.00,,,0.00,WUHU216DAVISVP2,2013-04-07 17:55:00,
2013-04-07 14:00:00,70.1,41.9,30.11,ESE,113,0.0,6.0,36,0.00,,,0.00,WUHU216DAVISVP2,2013-04-07 18:00:00,
2013-04-07 14:05:00,69.9,41.6,30.11,ESE,104,7.0,7.0,36,0.00,,,0.00,WUHU216DAVISVP2,2013-04-07 18:05:00,
2013-04-07 14:10:00,70.1,41.0,30.11,West,272,2.0,7.0,35,0.00,,,0.00,WUHU216DAVISVP2,2013-04-07 18:10:00,
2013-04-07 14:15:00,70.1,41.0,30.10,SSE,148,0.0,7.0,35,0.00,,,0.00,WUHU216DAVISVP2,2013-04-07 18:15:00,
2013-04-07 14:20:00,70.1,41.7,30.10,WNW,302,1.0,6.0,36,0.00,,,0.00,WUHU216DAVISVP2,2013-04-07 18:20:00,
2013-04-07 14:25:00,70.4,42.0,30.10,NNW,332,1.0,6.0,36,0.00,,,0.00,WUHU216DAVISVP2,2013-04-07 18:25:00,
2013-04-07 14:30:00,70.4,41.4,30.09,NW,308,1.0,2.0,35,0.00,,,0.00,WUHU216DAVISVP2,2013-04-07 18:30:00,
2013-04-07 14:35:00,71.1,41.9,30.09,WNW,299,2.0,7.0,35,0.00,,,0.00,WUHU216DAVISVP2,2013-04-07 18:35:00,
2013-04-07 14:40:00,71.1,41.9,30.09,WNW,299,2.0,7.0,35,0.00,,,0.00,WUHU216DAVISVP2,2013-04-07 18:40:00,
2013-04-07 14:45:00,71.1,41.9,30.08,SE,127,0.0,4.0,35,0.00,,,0.00,WUHU216DAVISVP2,2013-04-07 18:45:00,
2013-04-07 14:50:00,71.3,42.1,30.08,NNE,13,1.0,4.0,35,0.00,,,0.00,WUHU216DAVISVP2,2013-04-07 18:50:00,
2013-04-07 14:55:00,71.6,42.3,30.08,North,0,9.0,9.0,35,0.00,,,0.00,WUHU216DAVISVP2,2013-04-07 18:55:00,
2013-04-07 15:00:00,71.5,42.2,30.07,ESE,123,2.0,9.0,35,0.00,,,0.00,WUHU216DAVISVP2,2013-04-07 19:00:00,
2013-04-07 15:05:00,71.5,42.2,30.07,SE,127,0.0,9.0,35,0.00,,,0.00,WUHU216DAVISVP2,2013-04-07 19:05:00,
2013-04-07 15:10:00,71.5,42.2,30.07,SSE,150,2.0,4.0,35,0.00,,,0.00,WUHU216DAVISVP2,2013-04-07 19:10:00,
2013-04-07 15:16:00,71.3,42.1,30.06,WNW,292,0.0,10.0,35,0.00,,,0.00,WUHU216DAVISVP2,2013-04-07 19:16:00,
2013-04-07 15:20:00,71.6,42.3,30.06,South,188,1.0,10.0,35,0.00,,,0.00,WUHU216DAVISVP2,2013-04-07 19:20:00,
2013-04-07 15:25:00,71.8,42.5,30.06,SE,136,4.0,8.0,35,0.00,,,0.00,WUHU216DAVISVP2,2013-04-07 19:25:00,
2013-04-07 15:31:00,72.1,42.8,30.06,North,4,4.0,8.0,35,0.00,,,0.00,WUHU216DAVISVP2,2013-04-07 19:31:00,
2013-04-07 15:36:00,72.1,42.8,30.06,WNW,298,1.0,4.0,35,0.00,,,0.00,WUHU216DAVISVP2,2013-04-07 19:36:00,
2013-04-07 15:41:00,72.5,43.1,30.06,East,99,4.0,4.0,35,0.00,,,0.00,WUHU216DAVISVP2,2013-04-07 19:41:00,
2013-04-07 15:46:00,72.5,43.1,30.04,East,89,1.0,4.0,35,0.00,,,0.00,WUHU216DAVISVP2,2013-04-07 19:46:00,
2013-04-07 15:51:00,72.5,43.1,30.04,East,88,6.0,6.0,35,0.00,,,0.00,WUHU216DAVISVP2,2013-04-07 19:51:00,
2013-04-07 15:56:00,72.5,43.1,30.04,SSE,148,4.0,6.0,35,0.00,,,0.00,WUHU216DAVISVP2,2013-04-07 19:56:00,
2013-04-07 16:01:00,72.5,43.1,30.03,SSE,148,4.0,6.0,35,0.00,,,0.00,WUHU216DAVISVP2,2013-04-07 20:01:00,
2013-04-07 16:06:00,72.7,43.3,30.03,ENE,65,1.0,4.0,35,0.00,,,0.00,WUHU216DAVISVP2,2013-04-07 20:06:00,
2013-04-07 16:11:00,72.7,43.3,30.03,ENE,65,1.0,4.0,35,0.00,,,0.00,WUHU216DAVISVP2,2013-04-07 20:11:00,
2013-04-07 17:35:00,71.1,41.1,30.03,ESE,107,1.0,1.0,34,0.00,,,0.00,WUHU216DAVISVP2,2013-04-07 21:35:00,
2013-04-07 17:40:00,71.1,41.1,30.03,SSE,154,0.0,4.0,34,0.00,,,0.00,WUHU216DAVISVP2,2013-04-07 21:40:00,
2013-04-07 17:45:00,71.1,41.9,30.04,NNE,18,0.0,4.0,35,0.00,,,0.00,WUHU216DAVISVP2,2013-04-07 21:45:00,
2013-04-07 17:50:00,71.1,41.9,30.04,NNE,14,0.0,1.0,35,0.00,,,0.00,WUHU216DAVISVP2,2013-04-07 21:50:00,
2013-04-07 17:55:00,70.9,40.9,30.04,East,83,0.0,1.0,34,0.00,,,0.00,WUHU216DAVISVP2,2013-04-07 21:55:00,
2013-04-07 18:00:00,70.8,40.9,30.03,East,99,0.0,1.0,34,0.00,,,0.00,WUHU216DAVISVP2,2013-04-07 22:00:00,
2013-04-07 18:05:00,70.4,40.5,30.03,North,11,2.0,2.0,34,0.00,,,0.00,WUHU216DAVISVP2,2013-04-07 22:05:00,
2013-04-07 18:10:00,70.4,40.5,30.03,North,11,1.0,2.0,34,0.00,,,0.00,WUHU216DAVISVP2,2013-04-07 22:10:00,
2013-04-07 18:16:00,70.4,40.5,30.03,North,11,1.0,2.0,34,0.00,,,0.00,WUHU216DAVISVP2,2013-04-07 22:16:00,
2013-04-07 18:22:00,70.4,40.5,30.03,West,264,1.0,1.0,34,0.00,,,0.00,WUHU216DAVISVP2,2013-04-07 22:22:00,
2013-04-07 18:26:00,69.9,40.1,30.03,SSW,209,0.0,1.0,34,0.00,,,0.00,WUHU216DAVISVP2,2013-04-07 22:26:00,
2013-04-07 18:31:00,69.9,40.1,30.03,SSW,209,0.0,1.0,34,0.00,,,0.00,WUHU216DAVISVP2,2013-04-07 22:31:00,